sat.trackr.live / text

‹ back to catalog

KUIPER-00113

NORAD 65948 · 2025-228B

PAYLOAD ACTIVE UNKNOWN

§ Identity

Operator
Country
US
Launch date
2025-10-14
Launch site
AFETR
Launch vehicle
Mass (kg)
RCS (m²)

External: N2YO · Heavens-Above · Gunter

§ Orbital elements

Epoch: 2026-09-20T21:29:48.932736Z

Period
97.30 min
Inclination
51.8966°
Eccentricity
0.0001059
Mean motion
14.79931214 rev/d
Perigee alt
628.8 km
Apogee alt
630.3 km
Semi-major
7,007.7 km
B*
2.6000e-4
RAAN
212.3607°
Arg perigee
82.6948°
Mean anomaly
277.4135°
Rev number
5,220

§ Raw data

KUIPER-001131 65948U 25228B   26263.89570524  .00001761  00000+0  26000-3 0  99952 65948  51.8966 212.3607 0001059  82.6948 277.4135 14.79931214 52201

JSON: /api/v1/satellites/65948 · /tle

For live sub-satellite position, see the globe view (requires WebGL).

§ Visibility from observer

Set your observer location to see the next 7 days of passes ≥ 10°. The values pass through the URL so the page stays shareable.

No JS? Fill the form by hand. The geolocation button needs JavaScript.